User: anonymous   Login
Location: Mauna Kea VIS
(19.7591°N, 155.4561°W)
Time: 05:26:39
(UTC-10:00)
Language:

Cosmos 1624 Rocket - Orbit

View from above orbital plane
View from above orbital plane
View from above satellite
View from above satellite

Ground track
Ground track

The orbit data is extracted from the following two-line orbital elements,

1 15483U 85006B   16209.36648808 -.00000038  00000-0 -39287-5 0  9998
2 15483  74.0430 231.3559 0020027 291.2226 166.2717 14.36129217649920
Epoch (UTC): 27 July 2016 08:47:44
Eccentricity: 0.0020027
inclination: 74.0430°
perigee height: 757 km
apogee height: 785 km
right ascension of ascending node: 231.3559°
argument of perigee: 291.2226°
revolutions per day: 14.36129217
mean anomaly at epoch: 166.2717°
orbit number at epoch: 64992

The dashed part of the orbit path shows where the satellite is in the earth's shadow,  

DLR